Location: Aboncourt
(47.7710°N, 5.9826°E)
Time: 02:47:31
(UTC+00:00)

SeaSat 1 - Pass Details

Date: 05 July 2020
Orbit: 744 x 747 km, 108.0° (Epoch: 03 August)

Event Time Altitude Azimuth Distance (km) Brightness Sun altitude
Rises 23:43:50 0° 43° (NE) 3,200 6.5 -19.6°
Reaches altitude 10° 23:46:57 10° 64° (ENE) 2,271 5.3 -19.6°
Maximum altitude 23:50:03 17° 104° (ESE) 1,850 4.4 -19.5°
Enters shadow 23:51:19 15° 122° (ESE) 1,923 4.3 -19.5°
